Time,TemperatureF,DewpointF,PressureIn,WindDirection,WindDirectionDegrees,WindSpeedMPH,WindSpeedGustMPH,Humidity,HourlyPrecipIn,Conditions,Clouds,dailyrainin,SoftwareType,DateUTC
2013-04-22 00:14:00,43.6,32.0,29.82,South,172,0.0,1.0,64,0.00,,,0.00,weatherlink.com 1.10,2013-04-22 06:14:00,
2013-04-22 00:29:00,43.2,32.0,29.82,South,172,0.0,0.0,64,0.00,,,0.00,weatherlink.com 1.10,2013-04-22 06:29:00,
2013-04-22 00:44:00,42.7,32.0,29.82,South,172,0.0,1.0,65,0.00,,,0.00,weatherlink.com 1.10,2013-04-22 06:44:00,
2013-04-22 00:59:00,41.9,31.0,29.81,South,172,0.0,0.0,65,0.00,,,0.00,weatherlink.com 1.10,2013-04-22 06:59:00,
2013-04-22 01:14:00,42.5,30.0,29.82,SSW,200,0.0,0.0,61,0.00,,,0.00,weatherlink.com 1.10,2013-04-22 07:14:00,
2013-04-22 01:29:00,42.0,30.0,29.82,SSW,202,0.0,1.0,62,0.00,,,0.00,weatherlink.com 1.10,2013-04-22 07:29:00,
2013-04-22 01:44:00,42.0,30.0,29.82,SSW,210,0.0,1.0,63,0.00,,,0.00,weatherlink.com 1.10,2013-04-22 07:44:00,
2013-04-22 01:59:00,41.7,30.0,29.81,SW,228,0.0,1.0,63,0.00,,,0.00,weatherlink.com 1.10,2013-04-22 07:59:00,
2013-04-22 02:15:00,40.9,30.0,29.81,WNW,298,0.0,2.0,66,0.00,,,0.00,weatherlink.com 1.10,2013-04-22 08:15:00,
2013-04-22 02:30:00,40.4,30.0,29.80,ESE,110,0.0,1.0,66,0.00,,,0.00,weatherlink.com 1.10,2013-04-22 08:30:00,
2013-04-22 02:45:00,40.0,30.0,29.79,ESE,102,1.0,2.0,67,0.00,,,0.00,weatherlink.com 1.10,2013-04-22 08:45:00,
2013-04-22 03:00:00,40.8,30.0,29.78,SE,130,0.0,2.0,65,0.00,,,0.00,weatherlink.com 1.10,2013-04-22 09:00:00,
2013-04-22 03:15:00,40.4,30.0,29.77,SW,221,0.0,1.0,66,0.00,,,0.00,weatherlink.com 1.10,2013-04-22 09:15:00,
2013-04-22 03:30:00,39.2,29.0,29.77,SW,221,0.0,0.0,67,0.00,,,0.00,weatherlink.com 1.10,2013-04-22 09:30:00,
2013-04-22 03:45:00,38.8,29.0,29.76,SSE,163,0.0,0.0,68,0.00,,,0.00,weatherlink.com 1.10,2013-04-22 09:45:00,
2013-04-22 04:00:00,38.8,29.0,29.75,SSE,163,0.0,0.0,68,0.00,,,0.00,weatherlink.com 1.10,2013-04-22 10:00:00,
2013-04-22 04:15:00,38.9,29.0,29.77,SW,215,0.0,0.0,67,0.00,,,0.00,weatherlink.com 1.10,2013-04-22 10:15:00,
2013-04-22 04:30:00,38.0,28.0,29.77,SW,214,0.0,0.0,68,0.00,,,0.00,weatherlink.com 1.10,2013-04-22 10:30:00,
2013-04-22 04:45:00,37.9,28.0,29.77,ESE,106,0.0,0.0,68,0.00,,,0.00,weatherlink.com 1.10,2013-04-22 10:45:00,
2013-04-22 05:00:00,37.3,28.0,29.79,ESE,105,0.0,0.0,69,0.00,,,0.00,weatherlink.com 1.10,2013-04-22 11:00:00,
2013-04-22 05:15:00,37.9,29.0,29.80,NNE,19,0.0,1.0,70,0.00,,,0.00,weatherlink.com 1.10,2013-04-22 11:15:00,
2013-04-22 05:30:00,39.8,31.0,29.82,NNE,15,1.0,4.0,70,0.00,,,0.00,weatherlink.com 1.10,2013-04-22 11:30:00,
2013-04-22 05:45:00,40.4,32.0,29.80,NE,55,0.0,5.0,72,0.00,,,0.00,weatherlink.com 1.10,2013-04-22 11:45:00,
2013-04-22 06:00:00,40.9,34.0,29.80,North,11,0.0,2.0,75,0.00,,,0.00,weatherlink.com 1.10,2013-04-22 12:00:00,
2013-04-22 06:15:00,41.0,34.0,29.81,NW,323,0.0,2.0,76,0.00,,,0.00,weatherlink.com 1.10,2013-04-22 12:15:00,
2013-04-22 06:30:00,40.7,34.0,29.82,South,191,0.0,1.0,77,0.00,,,0.00,weatherlink.com 1.10,2013-04-22 12:30:00,
2013-04-22 06:45:00,40.7,34.0,29.82,SE,134,0.0,0.0,78,0.00,,,0.00,weatherlink.com 1.10,2013-04-22 12:45:00,
2013-04-22 07:00:00,40.7,34.0,29.83,SE,134,0.0,0.0,78,0.00,,,0.00,weatherlink.com 1.10,2013-04-22 13:00:00,
2013-04-22 07:15:00,41.0,35.0,29.81,ESE,112,0.0,1.0,78,0.00,,,0.00,weatherlink.com 1.10,2013-04-22 13:15:00,
2013-04-22 07:30:00,41.5,35.0,29.82,ESE,103,0.0,1.0,77,0.00,,,0.00,weatherlink.com 1.10,2013-04-22 13:30:00,
2013-04-22 07:45:00,42.0,35.0,29.82,SW,219,0.0,1.0,76,0.00,,,0.00,weatherlink.com 1.10,2013-04-22 13:45:00,
2013-04-22 08:00:00,42.6,35.0,29.82,East,92,0.0,1.0,75,0.00,,,0.00,weatherlink.com 1.10,2013-04-22 14:00:00,
2013-04-22 08:15:00,43.2,35.0,29.82,ENE,72,0.0,3.0,73,0.00,,,0.00,weatherlink.com 1.10,2013-04-22 14:15:00,
2013-04-22 08:30:00,43.9,35.0,29.82,SE,141,0.0,4.0,71,0.00,,,0.00,weatherlink.com 1.10,2013-04-22 14:30:00,
2013-04-22 08:45:00,44.8,36.0,29.81,East,79,1.0,2.0,71,0.00,,,0.00,weatherlink.com 1.10,2013-04-22 14:45:00,
2013-04-22 09:00:00,48.4,36.0,29.81,East,86,1.0,2.0,63,0.00,,,0.00,weatherlink.com 1.10,2013-04-22 15:00:00,
2013-04-22 09:15:00,49.5,36.0,29.81,SE,140,0.0,2.0,59,0.00,,,0.00,weatherlink.com 1.10,2013-04-22 15:15:00,
2013-04-22 09:30:00,50.4,35.0,29.80,ENE,75,1.0,3.0,55,0.00,,,0.00,weatherlink.com 1.10,2013-04-22 15:30:00,
2013-04-22 09:45:00,51.6,36.0,29.80,ESE,113,0.0,3.0,55,0.00,,,0.00,weatherlink.com 1.10,2013-04-22 15:45:00,
2013-04-22 10:01:00,53.0,36.0,29.80,NE,36,1.0,5.0,52,0.00,,,0.00,weatherlink.com 1.10,2013-04-22 16:01:00,
2013-04-22 10:16:00,51.9,36.0,29.82,NE,46,4.0,8.0,54,0.00,,,0.00,weatherlink.com 1.10,2013-04-22 16:16:00,
2013-04-22 10:31:00,45.1,35.0,29.85,NE,55,5.0,13.0,67,0.00,,,0.00,weatherlink.com 1.10,2013-04-22 16:31:00,
2013-04-22 10:46:00,42.5,33.0,29.87,NNE,15,7.0,13.0,68,0.00,,,0.00,weatherlink.com 1.10,2013-04-22 16:46:00,
2013-04-22 11:01:00,40.0,30.0,29.90,NE,49,10.0,15.0,68,0.00,,,0.00,weatherlink.com 1.10,2013-04-22 17:01:00,
2013-04-22 11:16:00,38.4,29.0,29.91,East,82,4.0,16.0,68,0.00,,,0.00,weatherlink.com 1.10,2013-04-22 17:16:00,
2013-04-22 11:31:00,35.3,29.0,29.92,East,84,5.0,15.0,79,0.00,,,0.00,weatherlink.com 1.10,2013-04-22 17:31:00,
2013-04-22 11:46:00,32.9,29.0,29.95,NNE,30,9.0,11.0,86,0.00,,,0.00,weatherlink.com 1.10,2013-04-22 17:46:00,
2013-04-22 12:01:00,31.6,28.0,29.96,NE,42,4.0,9.0,87,0.00,,,0.00,weatherlink.com 1.10,2013-04-22 18:01:00,
2013-04-22 12:16:00,30.6,28.0,29.97,NNW,342,2.0,9.0,88,0.00,,,0.00,weatherlink.com 1.10,2013-04-22 18:16:00,
2013-04-22 12:31:00,30.0,28.0,29.98,NNE,30,2.0,9.0,90,0.00,,,0.00,weatherlink.com 1.10,2013-04-22 18:31:00,
2013-04-22 12:46:00,30.4,28.0,29.99,NE,47,8.0,8.0,92,0.00,,,0.00,weatherlink.com 1.10,2013-04-22 18:46:00,
2013-04-22 13:01:00,30.5,28.0,29.99,NNE,25,4.0,9.0,91,0.00,,,0.00,weatherlink.com 1.10,2013-04-22 19:01:00,
2013-04-22 13:16:00,30.6,28.0,30.00,NNW,328,5.0,9.0,91,0.00,,,0.00,weatherlink.com 1.10,2013-04-22 19:16:00,
2013-04-22 13:31:00,30.2,27.0,30.03,North,4,2.0,8.0,89,0.00,,,0.00,weatherlink.com 1.10,2013-04-22 19:31:00,
2013-04-22 13:46:00,29.6,27.0,30.03,NE,34,2.0,10.0,90,0.00,,,0.00,weatherlink.com 1.10,2013-04-22 19:46:00,
2013-04-22 14:01:00,29.2,26.0,30.04,NNW,339,1.0,7.0,89,0.00,,,0.00,weatherlink.com 1.10,2013-04-22 20:01:00,
2013-04-22 14:16:00,29.2,26.0,30.05,NNW,347,5.0,10.0,89,0.00,,,0.00,weatherlink.com 1.10,2013-04-22 20:16:00,
2013-04-22 14:31:00,29.8,27.0,30.06,NNE,32,5.0,7.0,90,0.00,,,0.00,weatherlink.com 1.10,2013-04-22 20:31:00,
2013-04-22 14:46:00,29.5,27.0,30.06,NE,49,1.0,7.0,89,0.00,,,0.00,weatherlink.com 1.10,2013-04-22 20:46:00,
2013-04-22 15:01:00,29.4,26.0,30.07,North,358,2.0,7.0,86,0.00,,,0.00,weatherlink.com 1.10,2013-04-22 21:01:00,
2013-04-22 15:16:00,29.2,26.0,30.08,ENE,67,4.0,9.0,87,0.00,,,0.00,weatherlink.com 1.10,2013-04-22 21:16:00,
2013-04-22 15:32:00,29.0,25.0,30.09,NW,322,5.0,6.0,83,0.00,,,0.00,weatherlink.com 1.10,2013-04-22 21:32:00,
2013-04-22 15:47:00,29.0,25.0,30.08,NNW,348,4.0,5.0,85,0.00,,,0.00,weatherlink.com 1.10,2013-04-22 21:47:00,
2013-04-22 16:02:00,29.3,25.0,30.09,North,360,3.0,5.0,84,0.00,,,0.00,weatherlink.com 1.10,2013-04-22 22:02:00,
2013-04-22 16:17:00,29.0,25.0,30.09,NNW,333,2.0,6.0,85,0.00,,,0.00,weatherlink.com 1.10,2013-04-22 22:17:00,
2013-04-22 16:32:00,28.0,25.0,30.10,North,6,2.0,9.0,89,0.00,,,0.00,weatherlink.com 1.10,2013-04-22 22:32:00,
2013-04-22 16:47:00,27.7,24.0,30.11,NE,55,1.0,5.0,87,0.00,,,0.00,weatherlink.com 1.10,2013-04-22 22:47:00,
2013-04-22 17:02:00,27.5,24.0,30.11,NW,309,0.0,7.0,88,0.00,,,0.00,weatherlink.com 1.10,2013-04-22 23:02:00,
2013-04-22 17:17:00,27.5,24.0,30.12,ENE,70,3.0,4.0,87,0.00,,,0.00,weatherlink.com 1.10,2013-04-22 23:17:00,
2013-04-22 17:32:00,27.1,24.0,30.14,NNW,348,4.0,7.0,87,0.00,,,0.00,weatherlink.com 1.10,2013-04-22 23:32:00,
2013-04-22 17:47:00,27.4,24.0,30.17,NNE,15,2.0,5.0,86,0.00,,,0.00,weatherlink.com 1.10,2013-04-22 23:47:00,
2013-04-22 18:02:00,27.1,23.0,30.17,East,79,2.0,4.0,85,0.00,,,0.00,weatherlink.com 1.10,2013-04-23 00:02:00,
2013-04-22 18:17:00,26.2,23.0,30.17,North,356,1.0,4.0,87,0.00,,,0.00,weatherlink.com 1.10,2013-04-23 00:17:00,
2013-04-22 18:32:00,25.4,22.0,30.17,ESE,121,0.0,4.0,88,0.00,,,0.00,weatherlink.com 1.10,2013-04-23 00:32:00,
2013-04-22 18:47:00,25.3,23.0,30.18,NE,49,0.0,5.0,90,0.00,,,0.00,weatherlink.com 1.10,2013-04-23 00:47:00,
2013-04-22 19:02:00,25.3,23.0,30.20,ENE,68,1.0,4.0,90,0.00,,,0.00,weatherlink.com 1.10,2013-04-23 01:02:00,
2013-04-22 19:17:00,24.8,22.0,30.21,NE,52,1.0,8.0,89,0.00,,,0.00,weatherlink.com 1.10,2013-04-23 01:17:00,
2013-04-22 19:32:00,24.6,22.0,30.22,ENE,68,0.0,6.0,90,0.00,,,0.00,weatherlink.com 1.10,2013-04-23 01:32:00,
2013-04-22 19:47:00,24.7,23.0,30.24,ENE,77,0.0,5.0,91,0.00,,,0.00,weatherlink.com 1.10,2013-04-23 01:47:00,
2013-04-22 20:02:00,24.4,22.0,30.26,NE,49,2.0,7.0,90,0.00,,,0.00,weatherlink.com 1.10,2013-04-23 02:02:00,
2013-04-22 20:17:00,23.9,21.0,30.25,East,91,1.0,7.0,89,0.00,,,0.00,weatherlink.com 1.10,2013-04-23 02:17:00,
2013-04-22 20:32:00,23.9,21.0,30.27,East,84,1.0,6.0,90,0.00,,,0.00,weatherlink.com 1.10,2013-04-23 02:32:00,
2013-04-22 20:47:00,23.9,21.0,30.28,North,8,3.0,4.0,90,0.00,,,0.00,weatherlink.com 1.10,2013-04-23 02:47:00,
2013-04-22 21:02:00,24.0,22.0,30.27,NNW,336,1.0,2.0,90,0.00,,,0.00,weatherlink.com 1.10,2013-04-23 03:02:00,
2013-04-22 21:17:00,24.0,22.0,30.30,North,356,0.0,4.0,91,0.00,,,0.00,weatherlink.com 1.10,2013-04-23 03:17:00,
2013-04-22 21:32:00,23.7,21.0,30.30,NE,51,0.0,3.0,90,0.00,,,0.00,weatherlink.com 1.10,2013-04-23 03:32:00,
2013-04-22 21:47:00,23.1,21.0,30.31,North,356,0.0,5.0,91,0.00,,,0.00,weatherlink.com 1.10,2013-04-23 03:47:00,
2013-04-22 22:03:00,23.0,21.0,30.32,NNW,330,0.0,3.0,92,0.00,,,0.00,weatherlink.com 1.10,2013-04-23 04:03:00,
2013-04-22 22:18:00,22.9,21.0,30.31,North,349,0.0,2.0,91,0.00,,,0.00,weatherlink.com 1.10,2013-04-23 04:18:00,
2013-04-22 22:33:00,22.7,21.0,30.29,ENE,65,0.0,3.0,91,0.00,,,0.00,weatherlink.com 1.10,2013-04-23 04:33:00,
2013-04-22 22:48:00,22.6,20.0,30.32,NNE,15,0.0,3.0,91,0.00,,,0.00,weatherlink.com 1.10,2013-04-23 04:48:00,
2013-04-22 23:03:00,22.6,20.0,30.28,NNW,333,1.0,3.0,91,0.00,,,0.00,weatherlink.com 1.10,2013-04-23 05:03:00,
2013-04-22 23:18:00,22.6,20.0,30.29,NE,34,0.0,3.0,91,0.00,,,0.00,weatherlink.com 1.10,2013-04-23 05:18:00,
2013-04-22 23:33:00,22.6,20.0,30.30,East,98,0.0,2.0,90,0.00,,,0.00,weatherlink.com 1.10,2013-04-23 05:33:00,
2013-04-22 23:48:00,22.4,20.0,30.30,NE,34,0.0,2.0,91,0.00,,,0.00,weatherlink.com 1.10,2013-04-23 05:48:00,